�N����,����,�~����,�C��,���x,�C��,����,���ϕ���,�ő�u�ԕ���,�ő厞����,���˗�,�I�_���x,�n�����x,�ő啗���N��,DTYPE
"23/02/01","00:10",0.0,-1.7,96.3,1012.3,313.6,1.7,2.7,323.4,0.00,-2.2,4.7,"00:00:40",1
"23/02/01","00:20",0.0,-1.9,96.5,1012.1,311.2,2.2,3.1,323.5,0.00,-2.3,4.7,"00:17:52",1
"23/02/01","00:30",0.0,-2.2,96.6,1012.1,304.6,1.8,2.8,320.5,0.00,-2.6,5.0,"00:20:16",1
"23/02/01","00:40",0.0,-2.2,96.9,1012.1,309.4,2.0,2.9,318.5,0.00,-2.6,4.8,"00:35:52",1
"23/02/01","00:50",0.0,-2.2,96.9,1011.9,317.8,2.5,3.2,324.6,0.00,-2.6,4.6,"00:42:32",1
"23/02/01","01:00",0.0,-2.3,97.1,1012.1,290.4,1.6,1.9,284.4,0.00,-2.7,4.7,"00:54:48",1
"23/02/01","01:10",0.0,-2.3,97.3,1011.9,308.0,2.1,2.8,320.1,0.00,-2.6,4.5,"01:08:40",1
"23/02/01","01:20",0.0,-2.3,97.4,1012.1,315.5,2.7,2.9,321.3,0.00,-2.6,4.5,"01:11:04",1
"23/02/01","01:30",0.0,-2.3,97.6,1011.9,313.1,2.3,2.9,322.9,0.00,-2.6,4.7,"01:20:02",1
"23/02/01","01:40",0.0,-2.2,97.6,1011.6,311.7,2.0,2.6,325.8,0.00,-2.5,4.7,"01:30:08",1
"23/02/01","01:50",0.0,-2.5,97.7,1011.9,294.3,1.3,2.4,309.0,0.00,-2.8,4.4,"01:49:36",1
"23/02/01","02:00",0.0,-2.5,97.9,1011.6,309.6,2.2,2.8,316.2,0.00,-2.7,4.3,"01:59:20",1
"23/02/01","02:10",0.0,-2.6,98.1,1012.1,300.2,2.2,2.8,317.1,0.00,-2.8,4.3,"02:00:08",1
"23/02/01","02:20",0.0,-2.3,97.4,1011.9,301.0,1.8,2.6,314.7,0.00,-2.6,4.3,"02:10:02",1
"23/02/01","02:30",0.0,-2.7,98.2,1012.1,313.9,2.6,3.2,321.2,0.00,-2.9,4.3,"02:22:08",1
"23/02/01","02:40",0.0,-2.4,97.6,1011.9,307.0,2.2,2.9,314.9,0.00,-2.7,4.2,"02:38:56",1
"23/02/01","02:50",0.0,-2.7,98.3,1011.9,308.9,2.1,2.6,322.1,0.00,-2.9,4.2,"02:40:16",1
"23/02/01","03:00",0.0,-2.6,97.7,1012.1,299.0,1.6,2.1,309.1,0.00,-2.9,4.2,"02:50:16",1
"23/02/01","03:10",0.0,-2.9,98.4,1011.9,301.9,1.8,2.4,309.2,0.00,-3.1,4.3,"03:05:12",1
"23/02/01","03:20",0.0,-2.8,97.9,1011.6,304.9,2.0,2.5,311.2,0.00,-3.0,4.2,"03:16:10",1
"23/02/01","03:30",0.0,-3.0,98.6,1011.6,309.4,2.5,2.9,319.3,0.00,-3.1,4.1,"03:27:38",1
"23/02/01","03:40",0.0,-2.8,98.0,1011.6,301.1,1.7,2.5,315.4,0.00,-3.0,4.3,"03:30:08",1
"23/02/01","03:50",0.0,-2.7,98.0,1011.6,300.0,1.6,2.5,306.5,0.00,-2.9,4.2,"03:44:28",1
"23/02/01","04:00",0.0,-2.7,98.1,1011.4,314.2,2.5,2.9,313.1,0.00,-2.9,4.0,"03:54:00",1
"23/02/01","04:10",0.0,-2.7,98.0,1011.6,299.5,2.0,2.5,325.1,0.00,-2.9,4.0,"04:00:08",1
"23/02/01","04:20",0.0,-2.8,98.1,1011.4,292.0,1.2,1.8,307.2,0.00,-3.0,4.1,"04:19:00",1
"23/02/01","04:30",0.0,-2.8,98.2,1011.9,302.1,2.0,2.5,312.4,0.00,-3.0,4.0,"04:22:42",1
"23/02/01","04:40",0.0,-3.1,98.3,1011.2,308.2,2.3,2.9,317.5,0.00,-3.3,4.0,"04:36:38",1
"23/02/01","04:50",0.0,-3.1,98.2,1010.9,299.2,1.7,2.2,309.8,0.00,-3.3,4.1,"04:40:16",1
"23/02/01","05:00",0.0,-3.3,98.3,1011.2,298.7,1.6,2.6,320.6,0.00,-3.5,4.0,"04:59:26",1
"23/02/01","05:10",0.0,-3.2,98.4,1011.2,305.3,2.0,2.8,322.3,0.00,-3.4,4.0,"05:01:26",1
"23/02/01","05:20",0.0,-3.2,98.4,1010.9,303.2,2.0,2.6,316.0,0.00,-3.4,3.9,"05:17:50",1
"23/02/01","05:30",0.0,-3.2,98.5,1011.2,299.9,1.7,2.0,304.4,0.00,-3.4,3.7,"05:27:20",1
"23/02/01","05:40",0.0,-3.1,98.4,1010.9,296.9,1.6,2.0,312.1,0.00,-3.3,3.8,"05:30:44",1
"23/02/01","05:50",0.0,-3.1,98.5,1011.2,302.3,1.6,1.9,313.8,0.00,-3.3,3.8,"05:40:08",1
"23/02/01","06:00",0.0,-3.1,98.5,1011.2,297.4,1.8,2.6,322.5,0.00,-3.3,3.7,"05:50:36",1
"23/02/01","06:10",0.0,-3.1,98.7,1011.6,305.7,2.0,2.4,310.2,0.00,-3.2,3.8,"06:02:56",1
"23/02/01","06:20",0.0,-3.3,98.6,1011.6,296.0,1.8,2.5,311.2,0.00,-3.4,3.7,"06:18:24",1
"23/02/01","06:30",0.0,-3.4,98.7,1011.4,299.1,1.6,2.2,308.6,0.00,-3.5,3.8,"06:21:38",1
"23/02/01","06:40",0.0,-3.4,98.7,1011.2,300.1,1.6,2.6,313.8,0.00,-3.5,3.4,"06:36:52",1
"23/02/01","06:50",0.0,-3.3,98.8,1011.4,304.9,1.8,2.4,318.8,0.00,-3.4,3.6,"06:40:08",1
"23/02/01","07:00",0.0,-3.1,98.9,1011.4,307.5,1.8,2.4,310.0,0.00,-3.2,3.6,"06:55:32",1
"23/02/01","07:10",0.0,-3.0,98.7,1011.4,284.8,1.2,1.9,287.9,0.00,-3.1,3.6,"07:05:12",1
"23/02/01","07:20",0.0,-3.3,98.7,1011.4,291.3,1.6,2.0,289.3,0.00,-3.4,3.6,"07:11:22",1
"23/02/01","07:30",0.0,-3.2,98.9,1011.6,311.0,2.2,19.3,36.0,0.00,-3.3,3.3,"07:21:50",1
"23/02/01","07:40",0.0,-3.2,98.9,1011.4,290.4,1.7,2.2,310.6,0.00,-3.3,3.5,"07:32:42",1
"23/02/01","07:50",0.0,-3.0,99.0,1011.6,297.0,1.6,2.1,270.4,0.00,-3.1,3.8,"07:40:20",1
"23/02/01","08:00",0.0,-3.0,99.0,1011.6,284.8,1.2,1.6,290.7,0.00,-3.1,3.6,"07:50:42",1
"23/02/01","08:10",0.0,-2.6,99.0,1011.6,298.3,1.6,2.0,303.7,0.00,-2.7,3.4,"08:02:20",1
"23/02/01","08:20",0.0,-2.4,99.0,1011.9,286.3,1.5,2.2,308.6,0.00,-2.5,3.4,"08:14:22",1
"23/02/01","08:30",0.0,-2.4,99.1,1011.6,305.7,1.8,2.1,317.1,0.00,-2.5,3.5,"08:27:12",1
"23/02/01","08:40",0.0,-2.0,99.1,1011.9,304.4,1.6,1.9,312.5,0.01,-2.1,3.6,"08:34:44",1
"23/02/01","08:50",0.0,-1.8,99.0,1011.9,280.0,1.1,1.7,285.3,0.01,-1.9,3.4,"08:49:56",1
"23/02/01","09:00",0.0,-1.4,99.0,1012.1,303.4,1.3,1.9,317.5,0.02,-1.5,3.3,"08:56:24",1
"23/02/01","09:10",0.0,-1.1,99.0,1012.1,305.9,1.3,1.9,315.6,0.03,-1.2,3.4,"09:05:58",1
"23/02/01","09:20",0.0,-0.7,99.0,1012.1,315.4,1.0,2.2,342.2,0.02,-0.8,3.3,"09:10:48",1
"23/02/01","09:30",0.0,-0.5,98.9,1012.3,280.9,0.8,1.4,242.3,0.02,-0.6,3.5,"09:22:24",1
"23/02/01","09:40",0.0,-0.1,98.9,1012.1,287.2,0.8,1.4,256.4,0.04,-0.2,3.5,"09:35:28",1
"23/02/01","09:50",0.0,0.3,98.9,1012.3,301.9,2.0,2.7,326.0,0.07,0.2,3.1,"09:49:20",1
"23/02/01","10:00",0.0,0.7,98.9,1012.3,313.3,2.2,3.2,321.6,0.09,0.6,3.4,"09:51:36",1
"23/02/01","10:10",0.0,1.0,98.7,1012.6,313.1,3.2,3.6,317.5,0.09,0.9,3.4,"10:04:38",1
"23/02/01","10:20",0.0,1.4,98.7,1012.6,317.4,2.7,3.2,320.0,0.09,1.3,3.2,"10:10:08",1
"23/02/01","10:30",0.2,1.8,98.6,1012.6,305.1,1.5,2.0,315.1,0.12,1.6,3.3,"10:28:46",1
"23/02/01","10:40",0.0,2.2,98.4,1012.8,284.9,1.5,2.0,258.2,0.15,2.0,3.3,"10:36:40",1
"23/02/01","10:50",0.0,2.4,98.0,1012.8,261.5,1.5,2.4,253.0,0.18,2.2,3.5,"10:40:02",1
"23/02/01","11:00",0.0,2.9,98.1,1012.8,272.3,2.0,2.6,270.4,0.14,2.7,3.4,"10:56:08",1
"23/02/01","11:10",0.0,3.4,97.8,1012.6,297.7,1.2,2.0,300.9,0.18,3.1,3.3,"11:00:16",1
"23/02/01","11:20",0.0,3.7,98.2,1012.6,297.0,1.5,2.5,319.4,0.19,3.5,3.3,"11:10:02",1
"23/02/01","11:30",0.0,3.8,96.2,1012.6,315.4,1.6,3.2,308.8,0.25,3.3,3.6,"11:23:44",1
"23/02/01","11:40",0.0,4.3,96.7,1012.3,212.5,0.6,1.0,317.2,0.38,3.9,3.6,"11:34:44",1
"23/02/01","11:50",0.0,4.9,95.6,1012.3,234.3,0.5,1.2,260.0,0.26,4.3,3.5,"11:42:40",1
"23/02/01","12:00",0.0,5.7,94.1,1012.3,261.4,0.8,1.8,245.1,0.28,4.9,3.6,"11:59:06",1
"23/02/01","12:10",0.0,6.1,91.5,1012.3,258.6,1.0,1.8,243.9,0.27,4.9,3.7,"12:01:40",1
"23/02/01","12:20",0.0,7.1,86.8,1012.1,255.2,0.8,1.8,265.8,0.37,5.1,3.5,"12:19:00",1
"23/02/01","12:30",0.0,7.6,79.7,1012.3,245.3,1.2,2.1,248.6,0.31,4.4,3.9,"12:23:58",1
"23/02/01","12:40",0.0,7.6,74.9,1012.1,271.5,1.0,2.4,248.0,0.19,3.5,3.8,"12:36:08",1
"23/02/01","12:50",0.0,7.4,72.6,1011.6,246.6,1.2,2.1,255.3,0.18,2.8,4.0,"12:42:18",1
"23/02/01","13:00",0.0,7.3,72.3,1011.4,257.2,1.2,2.5,249.3,0.12,2.7,4.1,"12:55:16",1
"23/02/01","13:10",0.0,7.3,71.9,1011.2,260.0,1.6,2.6,258.8,0.12,2.6,3.9,"13:05:44",1
"23/02/01","13:20",0.0,7.6,71.1,1010.4,276.6,1.7,2.9,311.8,0.19,2.7,4.2,"13:15:04",1
"23/02/01","13:30",0.0,7.9,70.0,1010.4,285.3,1.5,2.1,313.8,0.13,2.8,4.2,"13:25:50",1
"23/02/01","13:40",0.0,8.3,70.0,1009.5,265.6,1.1,2.5,266.7,0.16,3.2,4.3,"13:30:08",1
"23/02/01","13:50",0.0,9.0,68.0,1009.5,276.2,1.5,2.8,288.8,0.29,3.5,4.4,"13:44:24",1
"23/02/01","14:00",0.0,9.1,67.1,1008.8,248.8,1.1,2.1,248.3,0.16,3.4,4.4,"13:50:40",1
"23/02/01","14:10",0.0,9.3,66.1,1009.0,279.0,1.2,2.0,264.7,0.13,3.3,4.5,"14:08:34",1
"23/02/01","14:20",0.0,9.1,65.6,1008.8,280.1,1.6,3.3,259.7,0.08,3.0,4.6,"14:17:00",1
"23/02/01","14:30",0.0,8.8,66.4,1008.8,291.0,1.6,2.7,306.6,0.06,2.9,4.6,"14:21:28",1
"23/02/01","14:40",0.0,8.8,66.9,1008.3,297.7,1.5,1.9,299.3,0.03,3.0,4.6,"14:32:58",1
"23/02/01","14:50",0.0,8.8,67.3,1008.3,312.3,1.8,2.5,320.8,0.02,3.1,4.9,"14:46:48",1
"23/02/01","15:00",0.0,8.6,68.3,1008.3,300.2,1.7,2.6,330.0,0.03,3.1,4.9,"14:53:12",1
"23/02/01","15:10",0.0,8.3,71.0,1008.6,286.6,2.2,3.3,261.7,0.01,3.4,5.1,"15:02:50",1
"23/02/01","15:20",0.0,8.5,72.7,1008.6,280.2,1.2,2.4,310.3,0.09,3.9,5.0,"15:12:00",1
"23/02/01","15:30",0.0,8.7,72.2,1008.6,261.6,2.1,3.4,317.3,0.07,4.0,4.9,"15:27:10",1
"23/02/01","15:40",0.0,8.7,72.4,1008.6,258.8,1.0,2.9,243.0,0.01,4.1,5.0,"15:37:52",1
"23/02/01","15:50",0.0,9.1,72.3,1008.8,245.2,1.2,2.6,224.3,0.00,4.4,5.2,"15:48:34",1
"23/02/01","16:00",0.0,9.3,72.6,1009.0,271.0,1.8,3.6,324.7,0.00,4.7,5.0,"15:57:04",1
"23/02/01","16:10",0.0,9.3,72.8,1008.6,267.7,2.0,4.0,307.6,0.01,4.7,5.2,"16:06:32",1
"23/02/01","16:20",0.0,9.4,73.1,1008.3,300.3,1.6,2.8,318.6,0.03,4.9,5.1,"16:16:36",1
"23/02/01","16:30",0.0,9.4,73.0,1008.1,327.3,2.3,3.5,330.9,0.04,4.9,5.2,"16:23:26",1
"23/02/01","16:40",0.0,9.3,73.0,1008.1,321.0,2.0,2.9,346.5,0.01,4.8,5.4,"16:33:18",1
"23/02/01","16:50",0.0,9.1,73.6,1008.1,316.9,2.0,2.9,341.8,0.01,4.7,5.3,"16:45:28",1
"23/02/01","17:00",0.0,8.9,74.1,1007.8,312.0,1.6,2.2,333.2,0.01,4.6,5.4,"16:54:00",1
"23/02/01","17:10",0.0,8.6,74.7,1007.4,297.5,1.8,2.8,297.3,0.00,4.4,5.5,"17:04:56",1
"23/02/01","17:20",0.0,8.1,75.4,1007.6,275.1,2.0,3.4,260.6,0.00,4.1,5.3,"17:10:48",1
"23/02/01","17:30",0.0,8.0,76.2,1007.4,311.9,1.7,2.4,315.2,0.00,4.1,5.1,"17:26:48",1
"23/02/01","17:40",0.0,7.8,77.0,1007.8,307.6,2.0,2.9,328.2,0.00,4.1,5.3,"17:30:16",1
"23/02/01","17:50",0.0,7.6,77.7,1007.6,297.5,2.0,2.9,313.2,0.00,4.0,5.4,"17:49:36",1
"23/02/01","18:00",0.0,7.3,78.5,1007.6,297.4,2.3,3.4,325.7,0.00,3.9,5.6,"17:50:56",1
"23/02/01","18:10",0.0,7.1,79.2,1008.1,302.7,2.3,3.7,309.3,0.00,3.8,5.4,"18:07:20",1
"23/02/01","18:20",0.0,7.0,79.8,1008.3,314.6,2.8,4.0,316.8,0.00,3.8,5.6,"18:18:24",1
"23/02/01","18:30",0.0,6.9,80.2,1008.3,301.9,3.0,4.5,308.5,0.00,3.8,5.6,"18:26:16",1
"23/02/01","18:40",0.0,6.7,80.6,1008.1,308.5,2.8,4.8,316.1,0.00,3.6,5.4,"18:39:12",1
"23/02/01","18:50",0.0,6.6,81.0,1008.3,307.4,3.1,4.0,320.2,0.00,3.6,5.7,"18:40:56",1
"23/02/01","19:00",0.0,6.3,81.5,1008.3,284.5,2.3,2.9,270.8,0.00,3.4,5.3,"18:56:48",1
"23/02/01","19:10",0.0,6.2,82.3,1008.6,306.3,3.2,4.4,313.4,0.00,3.5,5.5,"19:05:04",1
"23/02/01","19:20",0.0,6.3,82.8,1008.6,293.4,2.7,3.9,296.2,0.00,3.6,5.6,"19:11:28",1
"23/02/01","19:30",0.0,6.3,83.1,1008.6,295.7,3.0,4.2,322.4,0.00,3.7,5.5,"19:25:28",1
"23/02/01","19:40",0.0,6.4,83.2,1008.6,293.2,2.7,3.4,266.3,0.00,3.8,5.6,"19:34:48",1
"23/02/01","19:50",0.0,6.3,83.4,1008.6,310.5,3.0,4.2,323.1,0.00,3.7,5.7,"19:48:40",1
"23/02/01","20:00",0.0,6.2,83.7,1008.3,299.7,2.7,3.9,316.2,0.00,3.7,5.7,"19:50:16",1
"23/02/01","20:10",0.0,5.9,84.2,1008.3,298.6,2.3,3.2,310.2,0.00,3.5,5.6,"20:00:24",1
"23/02/01","20:20",0.0,5.9,84.8,1008.6,293.0,2.1,3.4,326.2,0.00,3.6,5.5,"20:11:44",1
"23/02/01","20:30",0.0,5.8,85.4,1008.6,271.7,2.3,3.2,259.8,0.00,3.6,5.7,"20:23:36",1
"23/02/01","20:40",0.0,5.9,85.8,1008.8,286.7,2.5,4.3,307.7,0.00,3.7,5.4,"20:39:44",1
"23/02/01","20:50",0.0,6.3,85.8,1009.0,316.1,3.5,5.1,335.8,0.00,4.1,5.6,"20:48:48",1
"23/02/01","21:00",0.0,6.4,85.1,1009.0,324.3,3.7,5.4,334.5,0.00,4.1,5.5,"20:50:24",1
"23/02/01","21:10",0.0,6.2,84.9,1008.8,295.2,2.2,3.2,317.6,0.00,3.9,5.5,"21:00:08",1
"23/02/01","21:20",0.0,6.4,84.9,1009.3,316.3,3.0,4.2,327.5,0.00,4.1,5.5,"21:16:32",1
"23/02/01","21:30",0.0,6.6,84.6,1009.0,317.2,3.5,5.0,338.2,0.00,4.2,5.5,"21:27:52",1
"23/02/01","21:40",0.0,6.5,84.5,1009.5,315.9,3.6,4.8,332.5,0.00,4.1,5.4,"21:32:32",1
"23/02/01","21:50",0.0,6.5,84.5,1009.7,298.7,3.2,5.2,308.5,0.00,4.1,5.2,"21:42:56",1
"23/02/01","22:00",0.0,6.7,84.4,1009.5,312.9,3.7,5.2,322.9,0.00,4.3,5.4,"21:56:40",1
"23/02/01","22:10",0.0,6.7,84.2,1009.7,309.0,3.1,4.4,322.1,0.00,4.3,5.3,"22:06:00",1
"23/02/01","22:20",0.0,6.7,84.0,1010.0,295.0,2.8,3.6,261.6,0.00,4.2,5.4,"22:13:04",1
"23/02/01","22:30",0.0,6.7,84.2,1010.0,307.7,2.7,4.1,325.5,0.00,4.3,5.6,"22:21:44",1
"23/02/01","22:40",0.0,6.7,84.3,1010.0,317.9,2.2,3.4,319.5,0.00,4.3,5.5,"22:36:24",1
"23/02/01","22:50",0.0,6.5,84.7,1010.4,303.5,2.0,3.2,304.9,0.00,4.2,5.5,"22:46:56",1
"23/02/01","23:00",0.0,6.8,85.0,1010.2,288.2,2.6,4.2,259.2,0.00,4.5,5.6,"22:54:18",1
"23/02/01","23:10",0.0,6.8,84.9,1010.2,311.3,2.7,4.1,321.8,0.00,4.5,5.5,"23:09:52",1
"23/02/01","23:20",0.0,6.7,84.8,1010.7,306.0,2.7,3.7,336.4,0.00,4.4,5.4,"23:10:02",1
"23/02/01","23:30",0.0,6.5,84.7,1010.7,316.6,3.2,4.8,304.5,0.00,4.2,5.4,"23:29:28",1
"23/02/01","23:40",0.0,6.3,84.7,1010.7,322.1,3.0,4.4,328.5,0.00,4.0,5.5,"23:36:24",1
"23/02/01","23:50",0.0,6.4,84.9,1010.7,328.1,3.7,5.9,341.9,0.00,4.1,5.3,"23:44:40",1
"23/02/01","24:00",0.0,6.6,85.0,1010.7,306.2,4.0,5.9,299.6,0.00,4.3,5.6,"23:52:40",1
